WetterOnline ( https://www.wetteronline.de )

Wetter aktuell Catanzaro

Aktuelles Wetter: Messina (51m)

6-stündlich | Neueste Meldungen
Ortszeit Temperatur Wetter
Mi, 29.01. 7:00 15.0° C wolkig
Mi, 29.01. 1:00 14.2° C wolkig
Di, 28.01. 19:00 14.4° C leicht bewölkt
Di, 28.01. 13:00 16.4° C wolkig
Di, 28.01. 7:00 13.4° C wolkig
Di, 28.01. 1:00 12.4° C leicht bewölkt
Mo, 27.01. 19:00 14.0° C leicht bewölkt
Mo, 27.01. 13:00 15.2° C wolkig
Ortszeit Temperatur Wetter
Mi, 29.01. 8:00 14.8° C wolkig
Mi, 29.01. 7:55 15° C leicht bewölkt
Mi, 29.01. 7:00 15.0° C wolkig
Mi, 29.01. 6:55 15° C bewölkt
Mi, 29.01. 6:00 15.0° C wolkig
Mi, 29.01. 5:55 15° C bewölkt
Mi, 29.01. 5:00 15.0° C wolkig
Mi, 29.01. 4:55 15° C bewölkt
Mi, 29.01. 4:00 15.0° C wolkig
Ortszeit Relative Feuchte Sichtweite
Mi, 29.01. 7:00 83% 14 km
Mi, 29.01. 1:00 62% 16 km
Di, 28.01. 19:00 77% 20 km
Di, 28.01. 13:00 56% 20 km
Di, 28.01. 7:00 72% 16 km
Di, 28.01. 1:00 87% 12 km
Mo, 27.01. 19:00 80% 16 km
Mo, 27.01. 13:00 72% 20 km
Ortszeit Relative Feuchte Sichtweite
Mi, 29.01. 8:00 85% 10 km
Mi, 29.01. 7:55 82% >10 km
Mi, 29.01. 7:00 83% 14 km
Mi, 29.01. 6:55 82% >10 km
Mi, 29.01. 6:00 81% 10 km
Mi, 29.01. 5:55 82% >10 km
Mi, 29.01. 5:00 76% 10 km
Mi, 29.01. 4:55 77% >10 km
Mi, 29.01. 4:00 69% 10 km
Ortszeit Niederschlagsmenge Niederschlagsart
Mi, 29.01. 7:00 0.0 l/m2 in 12 Std. -
Mi, 29.01. 1:00 0.0 l/m2 in 6 Std. -
Di, 28.01. 19:00 0.0 l/m2 in 12 Std. -
Di, 28.01. 13:00 0.0 l/m2 in 6 Std. -
Di, 28.01. 7:00 0.0 l/m2 in 12 Std. -
Di, 28.01. 1:00 0.0 l/m2 in 6 Std. -
Mo, 27.01. 19:00 0.0 l/m2 in 12 Std. -
Mo, 27.01. 13:00 0.0 l/m2 in 6 Std. -
Ortszeit Niederschlagsmenge Niederschlagsart
Mi, 29.01. 8:00 keine Meldung -
Mi, 29.01. 7:55 keine Meldung -
Mi, 29.01. 7:00 keine Meldung -
Mi, 29.01. 6:55 keine Meldung -
Mi, 29.01. 6:00 keine Meldung -
Mi, 29.01. 5:55 keine Meldung -
Mi, 29.01. 5:00 keine Meldung -
Mi, 29.01. 4:55 keine Meldung -
Mi, 29.01. 4:00 keine Meldung -
Ortszeit Stärke Spitze Richtung
km/h Bft. km/h Grad Sektor
Mi, 29.01. 7:00 13 3 - 300° NW
Mi, 29.01. 1:00 6 1 - 30° NO
Di, 28.01. 19:00 7 2 - 350° N
Di, 28.01. 13:00 11 2 - 330° NW
Di, 28.01. 7:00 7 2 - 320° NW
Di, 28.01. 1:00 4 1 - 320° NW
Mo, 27.01. 19:00 4 1 - 300° NW
Mo, 27.01. 13:00 7 2 - 310° NW
Ortszeit Stärke Spitze Richtung
km/h Bft. km/h Grad Sektor
Mi, 29.01. 8:00 9 2 - 310° NW
Mi, 29.01. 7:55 9 2 - 310° NW
Mi, 29.01. 7:00 13 3 - 300° NW
Mi, 29.01. 6:55 13 3 - 300° NW
Mi, 29.01. 6:00 13 3 - 300° NW
Mi, 29.01. 5:55 13 3 - 300° NW
Mi, 29.01. 5:00 7 2 - 300° NW
Mi, 29.01. 4:55 7 2 - 300° NW
Mi, 29.01. 4:00 6 1 - 270° W
Ortszeit Untergrenze Bedeckung Gattung
total tief tief mittel hoch
Mi, 29.01. 7:00 450 m 7/8 7/8 Cu - -
Mi, 29.01. 1:00 600 m 6/8 6/8 Cu - -
Di, 28.01. 19:00 900 m 5/8 1/8 Sc Ac Ci
Di, 28.01. 13:00 750 m 6/8 2/8 Sc As Ci
Di, 28.01. 7:00 750 m 5/8 4/8 Sc As -
Di, 28.01. 1:00 900 m 3/8 3/8 Sc - -
Mo, 27.01. 19:00 750 m 5/8 5/8 Cu - -
Mo, 27.01. 13:00 750 m 6/8 6/8 Cb - -
Ortszeit Bedeckungsgrad in Achtel und Wolkenuntergrenze
Mi, 29.01. 8:00 3(450m) 4(750m)
Mi, 29.01. 7:55 3-4(450m) 3-4(750m)
Mi, 29.01. 7:00 3(450m) 5(750m)
Mi, 29.01. 6:55 3-4(450m) 5-7(750m)
Mi, 29.01. 6:00 2(600m) 5(900m)
Mi, 29.01. 5:55 1-2(600m) 5-7(900m)
Mi, 29.01. 5:00 2(600m) 5(900m)
Mi, 29.01. 4:55 1-2(600m) 5-7(900m)
Mi, 29.01. 4:00 2(600m) 5(900m)
Ortszeit Luftdruck NN (hPa) Tendenz (hPa in 3 Std.)
Mi, 29.01. 7:00 1017 + 0,1
Mi, 29.01. 1:00 1018 - 1,1
Di, 28.01. 19:00 1019 - 0,1
Di, 28.01. 13:00 1021 - 0,7
Di, 28.01. 7:00 1022 - 0,2
Di, 28.01. 1:00 1022 - 0,1
Mo, 27.01. 19:00 1022 + 0,6
Mo, 27.01. 13:00 1022 + 0,3
Ortszeit Luftdruck NN (hPa) Tendenz (hPa in 3 Std.)
Mi, 29.01. 8:00 1017 + 0,7
Mi, 29.01. 7:55 1017 keine Meldung
Mi, 29.01. 7:00 1017 + 0,1
Mi, 29.01. 6:55 1017 keine Meldung
Mi, 29.01. 6:00 1017 - 0,8
Mi, 29.01. 5:55 1016 keine Meldung
Mi, 29.01. 5:00 1017 - 0,9
Mi, 29.01. 4:55 1016 keine Meldung
Mi, 29.01. 4:00 1017 - 0,6
Ortszeit Schneehöhe (cm)
Mi, 29.01. 7:00 0
Mi, 29.01. 1:00 -
Di, 28.01. 19:00 -
Di, 28.01. 13:00 -
Di, 28.01. 7:00 0
Di, 28.01. 1:00 -
Mo, 27.01. 19:00 -
Mo, 27.01. 13:00 -
Ortszeit Schneehöhe (cm)
Mi, 29.01. 8:00 -
Mi, 29.01. 7:55 -
Mi, 29.01. 7:00 0
Mi, 29.01. 6:55 -
Mi, 29.01. 6:00 -
Mi, 29.01. 5:55 -
Mi, 29.01. 5:00 -
Mi, 29.01. 4:55 -
Mi, 29.01. 4:00 -
Link zu dieser Seite / Seite empfehlen

Das Wetter in ...